Year,Month,Day,Hour,Minute,Value (Times are PST for windspeed in km/hr)
2012,01,21,00,00,17.90
2012,01,21,00,01,13.70
2012,01,21,00,02,15.20
2012,01,21,00,03,14.00
2012,01,21,00,04,15.00
2012,01,21,00,05,13.90
2012,01,21,00,06,12.40
2012,01,21,00,07,10.40
2012,01,21,00,08,11.50
2012,01,21,00,09,7.80
2012,01,21,00,10,12.60
2012,01,21,00,11,13.00
2012,01,21,00,12,7.50
2012,01,21,00,13,10.00
2012,01,21,00,14,11.80
2012,01,21,00,15,19.10
2012,01,21,00,16,20.50
2012,01,21,00,17,13.40
2012,01,21,00,18,11.10
2012,01,21,00,19,9.40
2012,01,21,00,20,13.80
2012,01,21,00,21,12.30
2012,01,21,00,22,8.60
2012,01,21,00,23,11.00
2012,01,21,00,24,11.60
2012,01,21,00,25,13.60
2012,01,21,00,26,11.70
2012,01,21,00,27,17.50
2012,01,21,00,28,14.80
2012,01,21,00,29,11.40
2012,01,21,00,30,7.80
2012,01,21,00,31,9.90
2012,01,21,00,32,9.60
2012,01,21,00,33,9.10
2012,01,21,00,34,11.20
2012,01,21,00,35,9.90
2012,01,21,00,36,16.00
2012,01,21,00,37,10.10
2012,01,21,00,38,7.60
2012,01,21,00,39,7.90
2012,01,21,00,40,11.20
2012,01,21,00,41,8.60
2012,01,21,00,42,7.30
2012,01,21,00,43,11.30
2012,01,21,00,44,10.90
2012,01,21,00,45,7.00
2012,01,21,00,46,10.10
2012,01,21,00,47,7.10
2012,01,21,00,48,6.70
2012,01,21,00,49,5.50
2012,01,21,00,50,10.00
2012,01,21,00,51,9.30
2012,01,21,00,52,8.90
2012,01,21,00,53,7.30
2012,01,21,00,54,5.70
2012,01,21,00,55,7.80
2012,01,21,00,56,6.40
2012,01,21,00,57,7.70
2012,01,21,00,58,6.70
2012,01,21,00,59,7.50
2012,01,21,01,00,9.40
2012,01,21,01,01,10.80
2012,01,21,01,02,5.30
2012,01,21,01,03,7.80
2012,01,21,01,04,11.20
2012,01,21,01,05,14.10
2012,01,21,01,06,16.60
2012,01,21,01,07,9.80
2012,01,21,01,08,11.10
2012,01,21,01,09,10.30
2012,01,21,01,10,9.30
2012,01,21,01,11,11.70
2012,01,21,01,12,10.10
2012,01,21,01,13,14.60
2012,01,21,01,14,14.00
2012,01,21,01,15,14.60
2012,01,21,01,16,13.30
2012,01,21,01,17,14.80
2012,01,21,01,18,18.10
2012,01,21,01,19,11.50
2012,01,21,01,20,11.00
2012,01,21,01,21,13.80
2012,01,21,01,22,10.80
2012,01,21,01,23,12.20
2012,01,21,01,24,14.30
2012,01,21,01,25,11.30
2012,01,21,01,26,12.10
2012,01,21,01,27,16.00
2012,01,21,01,28,13.80
2012,01,21,01,29,8.60
2012,01,21,01,30,11.60
2012,01,21,01,31,10.20
2012,01,21,01,32,13.80
2012,01,21,01,33,7.40
2012,01,21,01,34,11.30
2012,01,21,01,35,10.40
2012,01,21,01,36,8.30
2012,01,21,01,37,9.00
2012,01,21,01,38,6.70
2012,01,21,01,39,10.70
2012,01,21,01,40,12.00
2012,01,21,01,41,12.40
2012,01,21,01,42,12.20
2012,01,21,01,43,12.10
2012,01,21,01,44,10.80
2012,01,21,01,45,7.90
2012,01,21,01,46,9.80
2012,01,21,01,47,2.80
2012,01,21,01,48,5.00
2012,01,21,01,49,8.30
2012,01,21,01,50,7.20
2012,01,21,01,51,8.90
2012,01,21,01,52,11.10
2012,01,21,01,53,11.00
2012,01,21,01,54,9.80
2012,01,21,01,55,10.00
2012,01,21,01,56,9.10
2012,01,21,01,57,8.50
2012,01,21,01,58,9.90
2012,01,21,01,59,8.60
2012,01,21,02,00,8.40
2012,01,21,02,01,6.30
2012,01,21,02,02,8.50
2012,01,21,02,03,8.80
2012,01,21,02,04,7.20
2012,01,21,02,05,7.80
2012,01,21,02,06,8.90
2012,01,21,02,07,9.70
2012,01,21,02,08,6.30
2012,01,21,02,09,6.90
2012,01,21,02,10,1.30
2012,01,21,02,11,0.00
2012,01,21,02,12,0.00
2012,01,21,02,13,2.50
2012,01,21,02,14,7.20
2012,01,21,02,15,10.70
2012,01,21,02,16,8.60
2012,01,21,02,17,7.10
2012,01,21,02,18,6.70
2012,01,21,02,19,6.90
2012,01,21,02,20,4.50
2012,01,21,02,21,7.60
2012,01,21,02,22,0.50
2012,01,21,02,23,0.00
2012,01,21,02,24,0.00
2012,01,21,02,25,0.00
2012,01,21,02,26,0.00
2012,01,21,02,27,0.00
2012,01,21,02,28,0.00
2012,01,21,02,29,0.00
2012,01,21,02,30,0.00
2012,01,21,02,31,0.00
2012,01,21,02,32,0.00
2012,01,21,02,33,0.00
2012,01,21,02,34,0.00
2012,01,21,02,35,0.00
2012,01,21,02,36,0.00
2012,01,21,02,37,0.00
2012,01,21,02,38,0.00
2012,01,21,02,39,0.00
2012,01,21,02,40,0.00
2012,01,21,02,41,0.00
2012,01,21,02,42,0.00
2012,01,21,02,43,0.00
2012,01,21,02,44,0.00
2012,01,21,02,45,0.00
2012,01,21,02,46,0.00
2012,01,21,02,47,0.00
2012,01,21,02,48,6.50
2012,01,21,02,49,9.60
2012,01,21,02,50,13.80
2012,01,21,02,51,18.30
2012,01,21,02,52,15.70
2012,01,21,02,53,20.80
2012,01,21,02,54,24.70
2012,01,21,02,55,25.20
2012,01,21,02,56,23.10
2012,01,21,02,57,16.90
2012,01,21,02,58,14.80
2012,01,21,02,59,19.80
2012,01,21,03,00,19.20
2012,01,21,03,01,17.50
2012,01,21,03,02,24.50
2012,01,21,03,03,20.80
2012,01,21,03,04,18.50
2012,01,21,03,05,23.80
2012,01,21,03,06,21.10
2012,01,21,03,07,22.50
2012,01,21,03,08,19.80
2012,01,21,03,09,17.80
2012,01,21,03,10,24.50
2012,01,21,03,11,21.50
2012,01,21,03,12,23.70
2012,01,21,03,13,15.00
2012,01,21,03,14,13.60
2012,01,21,03,15,17.40
2012,01,21,03,16,29.40
2012,01,21,03,17,23.00
2012,01,21,03,18,20.30
2012,01,21,03,19,20.00
2012,01,21,03,20,25.20
2012,01,21,03,21,22.50
2012,01,21,03,22,14.80
2012,01,21,03,23,16.70
2012,01,21,03,24,24.80
2012,01,21,03,25,22.00
2012,01,21,03,26,24.60
2012,01,21,03,27,24.70
2012,01,21,03,28,27.50
2012,01,21,03,29,21.70
2012,01,21,03,30,19.00
2012,01,21,03,31,17.50
2012,01,21,03,32,23.10
2012,01,21,03,33,22.20
2012,01,21,03,34,20.70
2012,01,21,03,35,21.10
2012,01,21,03,36,26.60
2012,01,21,03,37,20.30
2012,01,21,03,38,12.30
2012,01,21,03,39,25.80
2012,01,21,03,40,28.40
2012,01,21,03,41,26.80
2012,01,21,03,42,28.00
2012,01,21,03,43,29.60
2012,01,21,03,44,25.10
2012,01,21,03,45,31.30
2012,01,21,03,46,31.10
2012,01,21,03,47,28.70
2012,01,21,03,48,26.10
2012,01,21,03,49,31.80
2012,01,21,03,50,23.10
2012,01,21,03,51,26.10
2012,01,21,03,52,30.10
2012,01,21,03,53,25.30
2012,01,21,03,54,23.90
2012,01,21,03,55,22.10
2012,01,21,03,56,17.60
2012,01,21,03,57,16.20
2012,01,21,03,58,23.80
2012,01,21,03,59,24.40
2012,01,21,04,00,28.40
2012,01,21,04,01,18.70
2012,01,21,04,02,21.70
2012,01,21,04,03,26.20
2012,01,21,04,04,24.60
2012,01,21,04,05,19.30
2012,01,21,04,06,19.90
2012,01,21,04,07,23.00
2012,01,21,04,08,22.40
2012,01,21,04,09,17.60
2012,01,21,04,10,17.30
2012,01,21,04,11,22.90
2012,01,21,04,12,17.60
2012,01,21,04,13,18.90
2012,01,21,04,14,23.90
2012,01,21,04,15,24.40
2012,01,21,04,16,24.40
2012,01,21,04,17,30.40
2012,01,21,04,18,25.50
2012,01,21,04,19,25.80
2012,01,21,04,20,22.90
2012,01,21,04,21,18.40
2012,01,21,04,22,21.50
2012,01,21,04,23,19.50
2012,01,21,04,24,23.60
2012,01,21,04,25,32.20
2012,01,21,04,26,24.50
2012,01,21,04,27,20.90
2012,01,21,04,28,20.90
2012,01,21,04,29,28.60
2012,01,21,04,30,30.20
2012,01,21,04,31,29.80
2012,01,21,04,32,32.00
2012,01,21,04,33,23.10
2012,01,21,04,34,28.00
2012,01,21,04,35,25.80
2012,01,21,04,36,18.00
2012,01,21,04,37,19.70
2012,01,21,04,38,23.40
2012,01,21,04,39,26.40
2012,01,21,04,40,19.50
2012,01,21,04,41,21.90
2012,01,21,04,42,21.80
2012,01,21,04,43,28.60
2012,01,21,04,44,30.70
2012,01,21,04,45,22.70
2012,01,21,04,46,31.40
2012,01,21,04,47,28.00
2012,01,21,04,48,28.60
2012,01,21,04,49,29.50
2012,01,21,04,50,22.30
2012,01,21,04,51,19.50
2012,01,21,04,52,25.00
2012,01,21,04,53,28.60
2012,01,21,04,54,20.50
2012,01,21,04,55,17.20
2012,01,21,04,56,14.60
2012,01,21,04,57,21.90
2012,01,21,04,58,21.50
2012,01,21,04,59,22.30
2012,01,21,05,00,22.00
2012,01,21,05,01,17.60
2012,01,21,05,02,22.20
2012,01,21,05,03,22.50
2012,01,21,05,04,27.90
2012,01,21,05,05,28.50
2012,01,21,05,06,22.30
2012,01,21,05,07,24.30
2012,01,21,05,08,23.80
2012,01,21,05,09,19.50
2012,01,21,05,10,28.00
2012,01,21,05,11,20.30
2012,01,21,05,12,30.70
2012,01,21,05,13,26.00
2012,01,21,05,14,25.80
2012,01,21,05,15,21.50
2012,01,21,05,16,27.70
2012,01,21,05,17,29.60
2012,01,21,05,18,31.20
2012,01,21,05,19,26.90
2012,01,21,05,20,33.60
2012,01,21,05,21,23.40
2012,01,21,05,22,27.90
2012,01,21,05,23,25.90
2012,01,21,05,24,25.50
2012,01,21,05,25,19.80
2012,01,21,05,26,16.40
2012,01,21,05,27,24.30
2012,01,21,05,28,28.70
2012,01,21,05,29,22.00
2012,01,21,05,30,34.90
2012,01,21,05,31,29.50
2012,01,21,05,32,33.50
2012,01,21,05,33,30.40
2012,01,21,05,34,25.70
2012,01,21,05,35,21.10
2012,01,21,05,36,18.70
2012,01,21,05,37,23.90
2012,01,21,05,38,32.70
2012,01,21,05,39,27.80
2012,01,21,05,40,26.70
2012,01,21,05,41,27.30
2012,01,21,05,42,20.10
2012,01,21,05,43,13.20
2012,01,21,05,44,29.70
2012,01,21,05,45,28.60
2012,01,21,05,46,25.90
2012,01,21,05,47,31.40
2012,01,21,05,48,17.80
2012,01,21,05,49,20.50
2012,01,21,05,50,19.10
2012,01,21,05,51,25.70
2012,01,21,05,52,21.30
2012,01,21,05,53,30.20
2012,01,21,05,54,28.10
2012,01,21,05,55,24.10
2012,01,21,05,56,29.30
2012,01,21,05,57,22.40
2012,01,21,05,58,23.60
2012,01,21,05,59,19.80
2012,01,21,06,00,25.80
2012,01,21,06,01,26.60
2012,01,21,06,02,17.40
2012,01,21,06,03,19.50
2012,01,21,06,04,25.70
2012,01,21,06,05,28.40
2012,01,21,06,06,23.10
2012,01,21,06,07,21.10
2012,01,21,06,08,22.60
2012,01,21,06,09,21.60
2012,01,21,06,10,20.90
2012,01,21,06,11,20.80
2012,01,21,06,12,22.20
2012,01,21,06,13,29.80
2012,01,21,06,14,29.30
2012,01,21,06,15,16.60
2012,01,21,06,16,20.70
2012,01,21,06,17,24.50
2012,01,21,06,18,27.00
2012,01,21,06,19,30.70
2012,01,21,06,20,21.80
2012,01,21,06,21,17.10
2012,01,21,06,22,25.30
2012,01,21,06,23,23.50
2012,01,21,06,24,27.70
2012,01,21,06,25,26.90
2012,01,21,06,26,27.80
2012,01,21,06,27,25.00
2012,01,21,06,28,24.50
2012,01,21,06,29,21.70
2012,01,21,06,30,24.00
2012,01,21,06,31,28.30
2012,01,21,06,32,23.30
2012,01,21,06,33,22.20
2012,01,21,06,34,26.80
2012,01,21,06,35,19.60
2012,01,21,06,36,22.20
2012,01,21,06,37,22.10
2012,01,21,06,38,22.10
2012,01,21,06,39,21.50
2012,01,21,06,40,24.40
2012,01,21,06,41,25.10
2012,01,21,06,42,22.20
2012,01,21,06,43,17.20
2012,01,21,06,44,16.90
2012,01,21,06,45,18.70
2012,01,21,06,46,22.50
2012,01,21,06,47,24.10
2012,01,21,06,48,18.40
2012,01,21,06,49,15.80
2012,01,21,06,50,19.60
2012,01,21,06,51,27.50
2012,01,21,06,52,19.00
2012,01,21,06,53,16.80
2012,01,21,06,54,16.30
2012,01,21,06,55,21.10
2012,01,21,06,56,18.00
2012,01,21,06,57,19.90
2012,01,21,06,58,14.00
2012,01,21,06,59,18.80
2012,01,21,07,00,15.50
2012,01,21,07,01,21.20
2012,01,21,07,02,22.50
2012,01,21,07,03,24.00
2012,01,21,07,04,25.30
2012,01,21,07,05,22.30
2012,01,21,07,06,19.20
2012,01,21,07,07,18.00
2012,01,21,07,08,16.20
2012,01,21,07,09,21.50
2012,01,21,07,10,22.80
2012,01,21,07,11,20.40
2012,01,21,07,12,18.10
2012,01,21,07,13,18.70
2012,01,21,07,14,26.70
2012,01,21,07,15,19.00
2012,01,21,07,16,15.40
2012,01,21,07,17,15.80
2012,01,21,07,18,22.50
2012,01,21,07,19,29.30
2012,01,21,07,20,21.50
2012,01,21,07,21,23.20
2012,01,21,07,22,23.80
2012,01,21,07,23,17.20
2012,01,21,07,24,18.90
2012,01,21,07,25,17.70
2012,01,21,07,26,19.90
2012,01,21,07,27,18.70
2012,01,21,07,28,15.10
2012,01,21,07,29,18.70
2012,01,21,07,30,22.50
2012,01,21,07,31,14.20
2012,01,21,07,32,15.30
2012,01,21,07,33,18.60
2012,01,21,07,34,17.90
2012,01,21,07,35,12.00
2012,01,21,07,36,14.80
2012,01,21,07,37,13.60
2012,01,21,07,38,12.60
2012,01,21,07,39,11.80
2012,01,21,07,40,13.70
2012,01,21,07,41,17.30
2012,01,21,07,42,18.30
2012,01,21,07,43,16.40
2012,01,21,07,44,15.70
2012,01,21,07,45,15.50
2012,01,21,07,46,13.00
2012,01,21,07,47,19.00
2012,01,21,07,48,19.70
2012,01,21,07,49,14.50
2012,01,21,07,50,18.30
2012,01,21,07,51,17.80
2012,01,21,07,52,16.60
2012,01,21,07,53,16.60
2012,01,21,07,54,22.70
2012,01,21,07,55,19.00
2012,01,21,07,56,14.70
2012,01,21,07,57,14.10
2012,01,21,07,58,25.40
2012,01,21,07,59,20.30
2012,01,21,08,00,21.20
2012,01,21,08,01,15.20
2012,01,21,08,02,15.40
2012,01,21,08,03,23.40
2012,01,21,08,04,24.90
2012,01,21,08,05,20.20
2012,01,21,08,06,16.20
2012,01,21,08,07,15.90
2012,01,21,08,08,16.30
2012,01,21,08,09,14.30
2012,01,21,08,10,18.90
2012,01,21,08,11,14.90
2012,01,21,08,12,18.50
2012,01,21,08,13,23.30
2012,01,21,08,14,25.50
2012,01,21,08,15,21.80
2012,01,21,08,16,18.70
2012,01,21,08,17,14.50
2012,01,21,08,18,21.40
2012,01,21,08,19,18.80
2012,01,21,08,20,27.80
2012,01,21,08,21,22.50
2012,01,21,08,22,13.60
2012,01,21,08,23,20.20
2012,01,21,08,24,17.50
2012,01,21,08,25,18.90
2012,01,21,08,26,23.40
2012,01,21,08,27,16.50
2012,01,21,08,28,19.30
2012,01,21,08,29,19.50
2012,01,21,08,30,18.70
2012,01,21,08,31,15.80
2012,01,21,08,32,10.90
2012,01,21,08,33,15.80
2012,01,21,08,34,18.70
2012,01,21,08,35,12.90
2012,01,21,08,36,13.40
2012,01,21,08,37,20.80
2012,01,21,08,38,19.80
2012,01,21,08,39,16.60
2012,01,21,08,40,17.60
2012,01,21,08,41,18.80
2012,01,21,08,42,14.90
2012,01,21,08,43,22.50
2012,01,21,08,44,22.90
2012,01,21,08,45,18.30
2012,01,21,08,46,24.40
2012,01,21,08,47,19.80
2012,01,21,08,48,19.10
2012,01,21,08,49,18.30
2012,01,21,08,50,16.80
2012,01,21,08,51,14.50
2012,01,21,08,52,20.90
2012,01,21,08,53,21.50
2012,01,21,08,54,22.20
2012,01,21,08,55,14.80
2012,01,21,08,56,21.80
2012,01,21,08,57,21.40
2012,01,21,08,58,18.40
2012,01,21,08,59,20.70
2012,01,21,09,00,21.20
2012,01,21,09,01,22.50
2012,01,21,09,02,22.20
2012,01,21,09,03,24.30
2012,01,21,09,04,19.80
2012,01,21,09,05,21.50
2012,01,21,09,06,19.80
2012,01,21,09,07,22.50
2012,01,21,09,08,23.10
2012,01,21,09,09,23.20
2012,01,21,09,10,21.80
2012,01,21,09,11,17.30
2012,01,21,09,12,11.30
2012,01,21,09,13,22.30
2012,01,21,09,14,17.20
2012,01,21,09,15,22.00
2012,01,21,09,16,15.80
2012,01,21,09,17,11.70
2012,01,21,09,18,13.40
2012,01,21,09,19,17.10
2012,01,21,09,20,13.20
2012,01,21,09,21,12.20
2012,01,21,09,22,14.80
2012,01,21,09,23,11.00
2012,01,21,09,24,10.10
2012,01,21,09,25,11.20
2012,01,21,09,26,10.30
2012,01,21,09,27,9.10
2012,01,21,09,28,15.60
2012,01,21,09,29,9.50
2012,01,21,09,30,11.70
2012,01,21,09,31,16.60
2012,01,21,09,32,14.60
2012,01,21,09,33,16.20
2012,01,21,09,34,15.30
2012,01,21,09,35,16.50
2012,01,21,09,36,16.40
2012,01,21,09,37,17.20
2012,01,21,09,38,16.50
2012,01,21,09,39,14.10
2012,01,21,09,40,14.20
2012,01,21,09,41,13.70
2012,01,21,09,42,18.50
2012,01,21,09,43,11.90
2012,01,21,09,44,13.80
2012,01,21,09,45,13.90
2012,01,21,09,46,14.40
2012,01,21,09,47,21.60
2012,01,21,09,48,16.70
2012,01,21,09,49,17.80
2012,01,21,09,50,15.10
2012,01,21,09,51,16.60
2012,01,21,09,52,15.20
2012,01,21,09,53,18.20
2012,01,21,09,54,13.00
2012,01,21,09,55,15.50
2012,01,21,09,56,18.30
2012,01,21,09,57,15.40
2012,01,21,09,58,13.20
2012,01,21,09,59,15.60
2012,01,21,10,00,21.30
2012,01,21,10,01,17.30
2012,01,21,10,02,15.70
2012,01,21,10,03,16.30
2012,01,21,10,04,22.20
2012,01,21,10,05,16.80
2012,01,21,10,06,17.50
2012,01,21,10,07,19.10
2012,01,21,10,08,19.50
2012,01,21,10,09,25.30
2012,01,21,10,10,19.50
2012,01,21,10,11,17.30
2012,01,21,10,12,25.50
2012,01,21,10,13,18.10
2012,01,21,10,14,19.10
2012,01,21,10,15,13.30
2012,01,21,10,16,15.80
2012,01,21,10,17,17.50
2012,01,21,10,18,16.00
2012,01,21,10,19,16.20
2012,01,21,10,20,12.40
2012,01,21,10,21,9.70
2012,01,21,10,22,14.30
2012,01,21,10,23,15.00
2012,01,21,10,24,14.60
2012,01,21,10,25,24.80
2012,01,21,10,26,21.20
2012,01,21,10,27,16.40
2012,01,21,10,28,26.10
2012,01,21,10,29,26.90
2012,01,21,10,30,26.70
2012,01,21,10,31,24.80
2012,01,21,10,32,17.30
2012,01,21,10,33,22.70
2012,01,21,10,34,23.50
2012,01,21,10,35,24.80
2012,01,21,10,36,18.90
2012,01,21,10,37,14.00
2012,01,21,10,38,15.40
2012,01,21,10,39,18.00
2012,01,21,10,40,12.10
2012,01,21,10,41,11.00
2012,01,21,10,42,11.50
2012,01,21,10,43,14.40
2012,01,21,10,44,11.30
2012,01,21,10,45,16.00
2012,01,21,10,46,11.90
2012,01,21,10,47,8.10
2012,01,21,10,48,13.30
2012,01,21,10,49,13.00
2012,01,21,10,50,12.00
2012,01,21,10,51,8.40
2012,01,21,10,52,14.70
2012,01,21,10,53,9.20
2012,01,21,10,54,8.10
2012,01,21,10,55,11.60
2012,01,21,10,56,11.90
2012,01,21,10,57,9.60
2012,01,21,10,58,14.40
2012,01,21,10,59,10.60
2012,01,21,11,00,12.30
2012,01,21,11,01,20.60
2012,01,21,11,02,17.40
2012,01,21,11,03,13.40
2012,01,21,11,04,21.20
2012,01,21,11,05,31.40
2012,01,21,11,06,26.20
2012,01,21,11,07,32.00
2012,01,21,11,08,29.40
2012,01,21,11,09,21.20
2012,01,21,11,10,27.10
2012,01,21,11,11,21.00
2012,01,21,11,12,21.30
2012,01,21,11,13,25.00
2012,01,21,11,14,24.40
2012,01,21,11,15,22.10
2012,01,21,11,16,17.50
2012,01,21,11,17,13.50
2012,01,21,11,18,20.00
2012,01,21,11,19,19.60
2012,01,21,11,20,15.40
2012,01,21,11,21,18.30
2012,01,21,11,22,15.10
2012,01,21,11,23,13.70
2012,01,21,11,24,15.10
2012,01,21,11,25,15.90
2012,01,21,11,26,11.30
2012,01,21,11,27,16.70
2012,01,21,11,28,16.00
2012,01,21,11,29,14.10
2012,01,21,11,30,14.20
2012,01,21,11,31,16.90
2012,01,21,11,32,15.00
2012,01,21,11,33,11.00
2012,01,21,11,34,16.20
2012,01,21,11,35,14.10
2012,01,21,11,36,15.40
2012,01,21,11,37,20.00
2012,01,21,11,38,16.40
2012,01,21,11,39,10.00
2012,01,21,11,40,12.40
2012,01,21,11,41,13.40
2012,01,21,11,42,9.20
2012,01,21,11,43,15.50
2012,01,21,11,44,16.40
2012,01,21,11,45,10.30
2012,01,21,11,46,15.80
2012,01,21,11,47,19.50
2012,01,21,11,48,17.10
2012,01,21,11,49,23.40
2012,01,21,11,50,20.70
2012,01,21,11,51,23.30
2012,01,21,11,52,22.80
2012,01,21,11,53,20.30
2012,01,21,11,54,20.60
2012,01,21,11,55,14.20
2012,01,21,11,56,25.40
2012,01,21,11,57,26.80
2012,01,21,11,58,27.10
2012,01,21,11,59,29.20
2012,01,21,12,00,27.00
2012,01,21,12,01,25.30
2012,01,21,12,02,14.60
2012,01,21,12,03,13.70
2012,01,21,12,04,15.40
2012,01,21,12,05,17.80
2012,01,21,12,06,17.80
2012,01,21,12,07,18.80
2012,01,21,12,08,12.00
2012,01,21,12,09,9.70
2012,01,21,12,10,20.20
2012,01,21,12,11,26.60
2012,01,21,12,12,17.50
2012,01,21,12,13,18.70
2012,01,21,12,14,17.00
2012,01,21,12,15,13.10
2012,01,21,12,16,20.20
2012,01,21,12,17,18.20
2012,01,21,12,18,18.70
2012,01,21,12,19,12.80
2012,01,21,12,20,12.90
2012,01,21,12,21,18.70
2012,01,21,12,22,22.70
2012,01,21,12,23,17.90
2012,01,21,12,24,14.50
2012,01,21,12,25,26.10
2012,01,21,12,26,23.90
2012,01,21,12,27,15.60
2012,01,21,12,28,21.90
2012,01,21,12,29,17.60
2012,01,21,12,30,19.00
2012,01,21,12,31,19.20
2012,01,21,12,32,20.80
2012,01,21,12,33,16.70
2012,01,21,12,34,22.20
2012,01,21,12,35,19.80
2012,01,21,12,36,18.10
2012,01,21,12,37,16.40
2012,01,21,12,38,14.00
2012,01,21,12,39,17.40
2012,01,21,12,40,20.20
2012,01,21,12,41,22.50
2012,01,21,12,42,24.00
2012,01,21,12,43,18.70
2012,01,21,12,44,16.60
2012,01,21,12,45,18.60
2012,01,21,12,46,17.10
2012,01,21,12,47,15.10
2012,01,21,12,48,17.70
2012,01,21,12,49,18.60
2012,01,21,12,50,22.10
2012,01,21,12,51,16.50
2012,01,21,12,52,14.40
2012,01,21,12,53,18.20
2012,01,21,12,54,17.00
2012,01,21,12,55,14.80
2012,01,21,12,56,18.10
2012,01,21,12,57,17.10
2012,01,21,12,58,18.30
2012,01,21,12,59,17.60
2012,01,21,13,00,14.60
2012,01,21,13,01,20.60
2012,01,21,13,02,21.10
2012,01,21,13,03,17.20
2012,01,21,13,04,23.00
2012,01,21,13,05,29.80
2012,01,21,13,06,21.00
2012,01,21,13,07,20.60
2012,01,21,13,08,23.50
2012,01,21,13,09,25.00
2012,01,21,13,10,24.20
2012,01,21,13,11,25.80
2012,01,21,13,12,17.60
2012,01,21,13,13,15.60
2012,01,21,13,14,16.40
2012,01,21,13,15,21.90
2012,01,21,13,16,20.50
2012,01,21,13,17,16.80
2012,01,21,13,18,19.30
2012,01,21,13,19,17.30
2012,01,21,13,20,22.00
2012,01,21,13,21,19.10
2012,01,21,13,22,20.10
2012,01,21,13,23,16.80
2012,01,21,13,24,22.10
2012,01,21,13,25,22.80
2012,01,21,13,26,21.10
2012,01,21,13,27,30.20
2012,01,21,13,28,18.10
2012,01,21,13,29,14.70
2012,01,21,13,30,15.60
2012,01,21,13,31,19.90
2012,01,21,13,32,23.40
2012,01,21,13,33,20.60
2012,01,21,13,34,16.10
2012,01,21,13,35,17.80
2012,01,21,13,36,20.50
2012,01,21,13,37,18.60
2012,01,21,13,38,14.60
2012,01,21,13,39,20.80
2012,01,21,13,40,18.00
2012,01,21,13,41,19.60
2012,01,21,13,42,20.00
2012,01,21,13,43,26.10
2012,01,21,13,44,24.90
2012,01,21,13,45,21.50
2012,01,21,13,46,28.50
2012,01,21,13,47,18.10
2012,01,21,13,48,28.80
2012,01,21,13,49,24.30
2012,01,21,13,50,29.40
2012,01,21,13,51,17.60
2012,01,21,13,52,19.30
2012,01,21,13,53,22.80
2012,01,21,13,54,15.90
2012,01,21,13,55,24.40
2012,01,21,13,56,18.90
2012,01,21,13,57,16.20
2012,01,21,13,58,26.10
2012,01,21,13,59,22.30
2012,01,21,14,00,23.00
2012,01,21,14,01,19.80
2012,01,21,14,02,20.30
2012,01,21,14,03,18.60
2012,01,21,14,04,24.70
2012,01,21,14,05,28.70
2012,01,21,14,06,25.60
2012,01,21,14,07,18.70
2012,01,21,14,08,21.70
2012,01,21,14,09,17.80
2012,01,21,14,10,21.70
2012,01,21,14,11,20.20
2012,01,21,14,12,23.00
2012,01,21,14,13,25.10
2012,01,21,14,14,19.20
2012,01,21,14,15,19.10
2012,01,21,14,16,20.40
2012,01,21,14,17,21.60
2012,01,21,14,18,24.60
2012,01,21,14,19,14.20
2012,01,21,14,20,16.30
2012,01,21,14,21,13.50
2012,01,21,14,22,21.20
2012,01,21,14,23,19.70
2012,01,21,14,24,15.20
2012,01,21,14,25,20.40
2012,01,21,14,26,18.80
2012,01,21,14,27,22.00
2012,01,21,14,28,21.80
2012,01,21,14,29,20.70
2012,01,21,14,30,23.20
2012,01,21,14,31,23.70
2012,01,21,14,32,16.80
2012,01,21,14,33,21.00
2012,01,21,14,34,16.70
2012,01,21,14,35,16.90
2012,01,21,14,36,17.80
2012,01,21,14,37,23.10
2012,01,21,14,38,21.00
2012,01,21,14,39,20.60
2012,01,21,14,40,20.90
2012,01,21,14,41,18.60
2012,01,21,14,42,19.20
2012,01,21,14,43,14.10
2012,01,21,14,44,12.50
2012,01,21,14,45,17.40
2012,01,21,14,46,18.90
2012,01,21,14,47,22.00
2012,01,21,14,48,21.80
2012,01,21,14,49,17.70
2012,01,21,14,50,20.30
2012,01,21,14,51,20.90
2012,01,21,14,52,16.80
2012,01,21,14,53,20.30
2012,01,21,14,54,15.40
2012,01,21,14,55,21.20
2012,01,21,14,56,19.00
2012,01,21,14,57,18.10
2012,01,21,14,58,21.30
2012,01,21,14,59,16.60
2012,01,21,15,00,17.60
2012,01,21,15,01,17.10
2012,01,21,15,02,19.50
2012,01,21,15,03,21.90
2012,01,21,15,04,18.10
2012,01,21,15,05,11.70
2012,01,21,15,06,18.50
2012,01,21,15,07,17.00
2012,01,21,15,08,19.10
2012,01,21,15,09,16.30
2012,01,21,15,10,19.90
2012,01,21,15,11,18.10
2012,01,21,15,12,20.90
2012,01,21,15,13,14.80
2012,01,21,15,14,20.80
2012,01,21,15,15,25.20
2012,01,21,15,16,23.60
2012,01,21,15,17,24.50
2012,01,21,15,18,22.90
2012,01,21,15,19,23.40
2012,01,21,15,20,20.00
2012,01,21,15,21,24.20
2012,01,21,15,22,15.10
2012,01,21,15,23,15.80
2012,01,21,15,24,25.40
2012,01,21,15,25,23.10
2012,01,21,15,26,15.80
2012,01,21,15,27,30.30
2012,01,21,15,28,28.20
2012,01,21,15,29,16.80
2012,01,21,15,30,27.80
2012,01,21,15,31,32.00
2012,01,21,15,32,29.30
2012,01,21,15,33,27.50
2012,01,21,15,34,27.30
2012,01,21,15,35,21.10
2012,01,21,15,36,20.10
2012,01,21,15,37,23.30
2012,01,21,15,38,18.90
2012,01,21,15,39,20.20
2012,01,21,15,40,17.60
2012,01,21,15,41,21.00
2012,01,21,15,42,18.20
2012,01,21,15,43,19.60
2012,01,21,15,44,22.90
2012,01,21,15,45,24.60
2012,01,21,15,46,20.80
2012,01,21,15,47,17.60
2012,01,21,15,48,20.90
2012,01,21,15,49,19.50
2012,01,21,15,50,23.30
2012,01,21,15,51,18.50
2012,01,21,15,52,13.10
2012,01,21,15,53,15.40
2012,01,21,15,54,22.70
2012,01,21,15,55,16.60
2012,01,21,15,56,19.30
2012,01,21,15,57,18.00
2012,01,21,15,58,24.50
2012,01,21,15,59,18.60
2012,01,21,16,00,18.70
2012,01,21,16,01,18.40
2012,01,21,16,02,18.20
2012,01,21,16,03,16.80
2012,01,21,16,04,19.50
2012,01,21,16,05,22.20
2012,01,21,16,06,20.40
2012,01,21,16,07,21.00
2012,01,21,16,08,22.80
2012,01,21,16,09,18.60
2012,01,21,16,10,15.80
2012,01,21,16,11,17.60
2012,01,21,16,12,14.10
2012,01,21,16,13,15.10
2012,01,21,16,14,12.90
2012,01,21,16,15,12.40
2012,01,21,16,16,14.90
2012,01,21,16,17,12.90
2012,01,21,16,18,13.20
2012,01,21,16,19,13.90
2012,01,21,16,20,18.10
2012,01,21,16,21,15.50
2012,01,21,16,22,17.50
2012,01,21,16,23,15.40
2012,01,21,16,24,22.60
2012,01,21,16,25,18.30
2012,01,21,16,26,17.80
2012,01,21,16,27,17.50
2012,01,21,16,28,9.70
2012,01,21,16,29,16.50
2012,01,21,16,30,23.40
2012,01,21,16,31,23.70
2012,01,21,16,32,25.30
2012,01,21,16,33,18.90
2012,01,21,16,34,20.20
2012,01,21,16,35,19.80
2012,01,21,16,36,18.70
2012,01,21,16,37,21.10
2012,01,21,16,38,25.20
2012,01,21,16,39,21.00
2012,01,21,16,40,24.30
2012,01,21,16,41,21.60
2012,01,21,16,42,19.40
2012,01,21,16,43,20.80
2012,01,21,16,44,20.80
2012,01,21,16,45,25.10
2012,01,21,16,46,22.00
2012,01,21,16,47,24.10
2012,01,21,16,48,22.30
2012,01,21,16,49,21.20
2012,01,21,16,50,20.20
2012,01,21,16,51,19.00
2012,01,21,16,52,19.50
2012,01,21,16,53,22.70
2012,01,21,16,54,23.20
2012,01,21,16,55,25.40
2012,01,21,16,56,16.50
2012,01,21,16,57,17.60
2012,01,21,16,58,20.90
2012,01,21,16,59,18.60
2012,01,21,17,00,25.50
2012,01,21,17,01,20.80
2012,01,21,17,02,25.70
2012,01,21,17,03,20.80
2012,01,21,17,04,20.10
2012,01,21,17,05,17.40
2012,01,21,17,06,15.00
2012,01,21,17,07,18.60
2012,01,21,17,08,18.30
2012,01,21,17,09,15.80
2012,01,21,17,10,15.20
2012,01,21,17,11,14.60
2012,01,21,17,12,17.80
2012,01,21,17,13,18.50
2012,01,21,17,14,11.90
2012,01,21,17,15,15.90
2012,01,21,17,16,15.00
2012,01,21,17,17,17.40
2012,01,21,17,18,16.00
2012,01,21,17,19,23.90
2012,01,21,17,20,14.30
2012,01,21,17,21,23.00
2012,01,21,17,22,22.70
2012,01,21,17,23,23.30
2012,01,21,17,24,23.70